星链-36087(STARLINK-36087)

导读

STARLINK-36087是美国SpaceX星链星座的卫星,于2025年12月2日发射。星链计划旨在构建全球卫星互联网网络,为全球偏远地区、海洋上空等场景提供高速宽带接入服务。这颗卫星加入后,进一步扩充了星链低轨卫星星座的规模,提升星座覆盖密度与服务能力,推动全球互联网络的覆盖完善。

基本信息
目录编号:
66854
目录名称:
STARLINK-36087
国际标识:
2025-281G
轨道中心:
EARTH
卫星名称:
星链-36087
卫星全名:
星链-36087(STARLINK-36087)
卫星状态:
在轨 (已飞行276 天)
发射日期:
2025-12-02 UTC
国别 :
美国 (US)
星等 :
--
轨道信息
数据来源 国际轨道数据
星历时间: 2026-09-03T20:14:39+0800
21小时前
查看轨道信息
半长轴: 6861.129km
偏心率: 0.0000734
轨道倾角: 42.996°
近地点辐角 150.533°
升交点赤经 58.996°
平近点角 209.556°
近地点: 482.488km
远地点: 483.496km
周期: 94.266分钟
每日圈数: 15.275992
详细信息
固有亮度:
5
最大亮度:
2.5
卫星平台:
Starlink V1.0
覆盖范围:
全球
运营商:
太空探索技术公司
运营商所在国:
美国
制造商(研发单位):
太空探索技术公司
制造商所在国:
美国
使用方式:
暂无
卫星简介
Starlink 计划是 SpaceX 推出的全球卫星互联网项目,通过发射低轨道卫星,为全球尤其是偏远地区提供高速、低延迟的互联网服务。自 2019 年起,Starlink 已部署数千颗卫星,旨在缩小全球数字鸿沟,推动互联网普及。该项目还为军事、航空等行业提供通信支持,带来广泛经济效益。
2D轨道图
3D轨道图
轨道高度分析图
轨道倾角分析图
轨道综合分析图
查看轨道综合分析图
交会数据列表
事件ID 空间交会对象 最接近时刻(TCA) 交会距离 交会风险概率(CRP) 交会风险指数(CRI) 操作
CDM_260905-033505-773706-685421
2026-09-05T
03:35:10+0000
0.261 km
中距离
5.165436E-4 高风险 0.89
CDM_260905-054005-705106-685421
2026-09-05T
05:40:45+0000
0.890 km
远距离
2.918763E-5 中风险 0.64
CDM_260905-040605-705106-685421
2026-09-05T
04:06:35+0000
0.999 km
远距离
1.966934E-5 中风险 0.61
CDM_260905-071405-705106-685421
2026-09-05T
07:14:54+0000
1.685 km
极远距离
3.419012E-6 低风险 0.46
CDM_260905-023205-705106-685421
2026-09-05T
02:32:26+0000
1.983 km
极远距离
2.186277E-6 低风险 0.42
CDM_260905-084905-705106-685421
2026-09-05T
08:49:03+0000
2.588 km
极远距离
1.261429E-6 低风险 0.37
CDM_260905-090405-773706-685421
2026-09-05T
09:04:41+0000
2.943 km
极远距离
1.085185E-6 低风险 0.36